Lid_Strength_Index
1 2 2 5 10 10 13 12 9 9 9 7 6 7 8 8 9 13 2 0 -0 -0 -1 -1 -2 -1 -1 -1 -1 -2 -2 -2 -2 -2 -2 -2 -2 -2 -2 -2 -2 -2 -2 -2 -2 -2 -2 -2 -2
2 1 4 7 12 14 13 11 10 9 7 6 5 6 7 9 5 4 3 0 -0 -0 -1 -1 -1 -1 -1 -1 -1 -1 -1 -2 -2 -2 -2 -2 -2 -2 -2 -2 -2 -2 -2 -2 -2 -2 -2 -2 -2
1 3 7 9 11 14 13 10 9 7 6 7 7 6 7 8 4 4 1 0 -0 -0 -1 -1 -1 -1 -1 -1 -1 -1 -1 -2 -2 -2 -2 -2 -2 -2 -2 -2 -2 -2 -2 -2 -2 -2 -2 -1 -1
5 5 7 11 13 10 10 9 7 7 7 5 6 8 5 3 3 2 1 0 0 0 -1 -1 -2 -2 -2 -1 -2 -1 -1 -1 -2 -2 -2 -2 -2 -2 -2 -2 -2 -2 -1 -2 -2 -2 -2 -1 -1
6 6 11 12 11 10 9 7 7 8 8 7 6 9 8 3 1 1 1 0 1 0 -0 -1 -1 -2 -2 -2 -2 -1 -1 -1 -1 -1 -1 -1 -2 -2 -2 -2 -2 -2 -2 -2 -2 -2 -1 -1 -1
9 8 12 14 12 9 9 7 7 7 7 7 7 8 7 3 2 2 1 1 0 0 -0 -1 -0 -1 -2 -2 -2 -2 -2 -1 -1 -1 -1 -1 -2 -2 -1 -1 -1 -1 -1 -1 -1 -1 -1 -1 -1
9 10 12 12 11 10 8 7 8 8 8 8 5 9 6 4 2 1 2 0 0 -0 -0 -0 -0 -0 0 -1 -1 -1 -2 -2 -2 -2 -1 -2 -2 -2 -2 -2 -1 -1 -1 -1 -1 -1 -1 -1 -1
9 10 13 11 11 11 8 7 7 6 8 6 5 9 8 5 2 2 1 1 1 0 -0 -0 -0 -0 -0 -0 1 0 -1 -1 -2 -1 -1 -0 -1 -1 -1 -1 -2 -1 -1 -1 -1 -2 -2 -1 -1
10 13 13 11 11 10 7 8 6 5 6 6 5 5 4 3 2 3 3 2 2 1 1 0 0 -0 -0 -0 1 1 0 -0 -0 -0 0 0 -0 -1 -0 0 -1 -2 -2 -2 -2 -2 -2 -2 -1
12 14 12 9 9 9 8 7 7 7 7 7 6 4 3 3 3 3 4 3 3 3 2 1 1 0 0 -1 0 0 -1 -0 -0 0 1 -0 -1 -1 -0 1 0 -0 -0 -1 -2 -2 -2 -0 0
12 14 10 9 8 8 7 7 6 7 9 7 7 6 4 4 4 4 4 3 3 2 2 1 1 1 1 0 0 -0 -1 -1 -1 -0 -0 -1 -0 -0 -1 1 1 1 2 1 0 0 0 1 0
13 11 9 8 7 8 8 7 8 8 8 5 4 4 4 4 4 4 4 3 3 3 2 1 1 1 1 0 0 -0 -0 0 1 1 1 1 1 1 1 1 1 1 1 1 1 1 1 1 0
12 11 9 9 8 8 8 9 8 8 7 5 4 4 4 4 4 3 3 3 3 3 2 2 2 2 1 1 1 1 1 0 0 -0 -0 0 1 1 1 1 1 1 1 1 1 1 1 1 1
10 10 9 9 9 9 9 10 9 8 7 6 5 5 5 4 4 4 4 4 4 3 3 2 2 2 1 1 2 2 1 1 0 -0 1 1 1 1 1 1 1 1 0 -0 1 1 1 1 1
8 11 11 11 10 11 10 12 11 8 6 7 7 7 5 5 4 5 4 4 3 3 4 4 5 5 4 3 2 2 1 2 2 2 2 2 1 1 0 -0 -0 1 1 1 1 1 1 1 1
10 11 15 11 10 10 12 15 10 8 8 8 7 7 7 5 4 4 4 3 4 4 6 6 5 6 5 4 3 2 2 3 4 5 4 3 2 1 0 0 1 -0 -1 -1 1 2 2 2 2
13 16 14 12 9 9 11 13 10 9 8 8 8 8 6 6 5 5 5 5 5 6 7 6 6 5 4 2 2 3 4 5 6 6 5 4 4 2 2 -0 0 -0 0 2 3 3 3 2 2
16 15 14 13 11 10 11 11 11 10 9 9 9 9 8 5 6 7 7 7 7 7 7 7 6 5 4 3 3 4 5 6 7 7 7 6 5 4 3 3 3 2 2 3 4 4 3 2 2
14 14 14 14 11 12 12 12 11 10 11 11 10 9 9 6 7 8 8 8 9 8 8 8 7 6 5 4 4 5 6 8 9 9 8 8 7 6 6 5 6 6 5 6 6 5 4 3 3
14 15 16 13 11 13 15 15 13 12 11 11 11 11 10 8 9 9 10 10 9 9 9 9 7 7 6 5 4 5 7 9 9 9 9 9 8 8 7 7 7 7 7 8 7 7 6 4 4
14 15 15 15 13 14 15 17 15 13 12 12 11 11 10 9 9 10 10 10 9 9 9 9 8 7 6 5 6 7 7 8 9 9 10 9 9 9 8 8 8 8 8 9 9 8 8 7 6
15 13 13 15 17 19 16 21 17 15 14 13 12 12 11 11 9 10 10 10 10 10 10 9 8 8 6 5 6 6 7 8 9 10 10 10 10 10 9 9 9 9 9 10 9 9 9 8 9
14 12 13 14 17 19 18 21 19 16 15 14 13 12 11 11 11 10 10 10 11 11 11 10 9 8 7 6 5 7 8 10 10 10 11 11 11 11 10 10 10 10 10 10 10 10 10 10 10
12 13 14 15 17 22 19 20 21 18 16 15 13 12 11 12 12 11 11 11 11 11 11 11 10 9 8 7 7 8 9 10 10 11 12 12 13 12 12 11 11 11 11 11 11 11 11 11 11
13 17 22 24 25 24 19 20 20 17 16 14 14 13 12 12 12 13 13 13 12 12 11 11 11 10 10 9 9 9 9 10 11 11 12 13 13 13 13 12 12 12 12 11 11 12 12 13 14
15 16 21 24 23 22 19 21 18 15 14 13 13 12 12 12 12 13 12 13 12 11 11 11 12 11 11 11 12 11 11 12 12 13 13 13 13 13 13 12 12 12 11 12 12 13 13 13 13
15 18 16 20 24 23 21 19 17 15 15 14 13 13 13 13 12 12 12 12 12 12 12 12 13 13 13 13 13 13 13 13 13 13 13 14 13 12 13 13 13 13 13 12 12 12 12 12 12
15 14 20 21 28 27 24 22 21 17 15 14 14 13 13 12 12 12 12 12 12 12 13 14 14 14 14 14 14 14 14 14 14 13 14 14 14 13 13 13 13 12 12 11 12 12 12 12 13
15 17 16 18 20 23 24 22 17 16 15 14 13 12 12 12 12 12 12 12 12 12 13 14 14 14 14 14 14 14 14 13 13 13 14 14 14 14 13 13 12 12 12 12 12 13 13 13 13
14 16 16 21 21 21 21 21 15 15 13 13 12 11 12 11 11 11 11 12 13 13 14 14 14 14 14 14 14 14 14 14 14 14 14 14 14 13 12 12 12 12 12 13 13 13 13 14 13